• en France
  • Liste des pays
  • À 7 jours
  • Température de l'eau
  • Carte satellitaire
  • Carte météo
  • Widgets météo
  • user-avatar
    Se connecter

    Météo par heure à Adélaïde

    Ce jour, 15 Octobre, Lundi

    Heure Température Précipitation Vent Pression Humidité
    00:00 +21°C° 0.2 mm 8 m/s 752 mmHg 58%
    01:00 +21°C° 0.5 mm 8 m/s 751 mmHg 60%
    02:00 +21°C° 0.5 mm 8 m/s 751 mmHg 62%
    03:00 +21°C° 0 mm 8 m/s 749 mmHg 60%
    04:00 +21°C° 0.7 mm 8 m/s 749 mmHg 64%
    05:00 +20°C° 0.7 mm 8 m/s 749 mmHg 68%
    06:00 +19°C° 0.7 mm 9 m/s 749 mmHg 72%
    07:00 +22°C° 0.5 mm 9 m/s 749 mmHg 67%
    08:00 +23°C° 0.5 mm 10 m/s 749 mmHg 61%
    09:00 +24°C° 0 mm 12 m/s 749 mmHg 56%
    10:00 +26°C° 0.1 mm 11 m/s 749 mmHg 53%
    11:00 +27°C° 0.1 mm 10 m/s 749 mmHg 49%
    12:00 +29°C° 0.1 mm 8 m/s 749 mmHg 46%
    13:00 +28°C° 0 mm 8 m/s 748 mmHg 46%
    14:00 +27°C° 0 mm 7 m/s 748 mmHg 46%
    15:00 +23°C° 0 mm 6 m/s 749 mmHg 59%
    16:00 +22°C° 0 mm 5 m/s 749 mmHg 59%
    17:00 +21°C° 0 mm 4 m/s 750 mmHg 59%
    18:00 +20°C° 0 mm 3 m/s 750 mmHg 59%
    19:00 +19°C° 0 mm 4 m/s 751 mmHg 61%
    20:00 +19°C° 0 mm 4 m/s 751 mmHg 64%
    21:00 +17°C° 0 mm 5 m/s 752 mmHg 66%
    22:00 +16°C° 0 mm 5 m/s 752 mmHg 72%
    23:00 +16°C° 0 mm 5 m/s 752 mmHg 78%

    Demain, 16 Octobre, Mardi

    Heure Température Précipitation Vent Pression Humidité
    00:00 +15°C° 0 mm 5 m/s 752 mmHg 85%
    01:00 +15°C° 0.1 mm 5 m/s 753 mmHg 86%
    02:00 +15°C° 0.1 mm 6 m/s 753 mmHg 88%
    03:00 +15°C° 0.1 mm 6 m/s 753 mmHg 89%
    04:00 +15°C° 0.1 mm 6 m/s 754 mmHg 88%
    05:00 +14°C° 0.1 mm 7 m/s 754 mmHg 87%
    06:00 +14°C° 0.1 mm 7 m/s 755 mmHg 86%
    07:00 +15°C° 0.1 mm 7 m/s 755 mmHg 85%
    08:00 +15°C° 0.1 mm 7 m/s 756 mmHg 84%
    09:00 +15°C° 0.1 mm 7 m/s 756 mmHg 83%
    10:00 +15°C° 0.1 mm 7 m/s 756 mmHg 83%
    11:00 +15°C° 0.1 mm 7 m/s 756 mmHg 83%
    12:00 +15°C° 0.1 mm 7 m/s 757 mmHg 83%
    13:00 +14°C° 0.1 mm 7 m/s 757 mmHg 84%
    14:00 +14°C° 0.1 mm 7 m/s 757 mmHg 84%
    15:00 +14°C° 0.1 mm 7 m/s 757 mmHg 85%
    16:00 +14°C° 0 mm 7 m/s 757 mmHg 85%
    17:00 +14°C° 0 mm 7 m/s 757 mmHg 86%
    18:00 +14°C° 0 mm 7 m/s 758 mmHg 86%
    19:00 +14°C° 0 mm 7 m/s 758 mmHg 86%
    20:00 +14°C° 0 mm 7 m/s 758 mmHg 87%
    21:00 +12°C° 0 mm 7 m/s 759 mmHg 87%
    22:00 +12°C° 0 mm 7 m/s 759 mmHg 87%
    23:00 +12°C° 0 mm 7 m/s 759 mmHg 87%

    Après-demain, 17 Octobre, Mercredi

    Heure Température Précipitation Vent Pression Humidité
    00:00 +12°C° 0 mm 7 m/s 759 mmHg 87%
    01:00 +12°C° 0 mm 7 m/s 759 mmHg 86%
    02:00 +12°C° 0 mm 7 m/s 759 mmHg 86%
    03:00 +13°C° 0 mm 6 m/s 759 mmHg 85%
    04:00 +13°C° 0 mm 6 m/s 759 mmHg 84%
    05:00 +13°C° 0 mm 6 m/s 759 mmHg 83%
    06:00 +11°C° 0 mm 6 m/s 760 mmHg 82%
    07:00 +13°C° 0 mm 6 m/s 760 mmHg 79%
    08:00 +13°C° 0 mm 6 m/s 760 mmHg 75%
    09:00 +14°C° 0 mm 6 m/s 760 mmHg 72%
    10:00 +15°C° 0 mm 6 m/s 760 mmHg 66%
    11:00 +16°C° 0 mm 6 m/s 760 mmHg 61%
    12:00 +17°C° 0 mm 5 m/s 760 mmHg 56%
    13:00 +19°C° 0 mm 5 m/s 759 mmHg 55%
    14:00 +19°C° 0 mm 5 m/s 759 mmHg 54%
    15:00 +19°C° 0 mm 5 m/s 759 mmHg 52%
    16:00 +17°C° 0 mm 5 m/s 759 mmHg 58%
    17:00 +15°C° 0 mm 4 m/s 759 mmHg 63%
    18:00 +14°C° 0 mm 4 m/s 759 mmHg 68%
    19:00 +13°C° 0 mm 4 m/s 759 mmHg 73%
    20:00 +12°C° 0 mm 4 m/s 760 mmHg 78%
    21:00 +11°C° 0 mm 4 m/s 760 mmHg 83%
    22:00 +11°C° 0 mm 3 m/s 760 mmHg 84%
    23:00 +10°C° 0 mm 3 m/s 760 mmHg 86%

    18 Octobre, Jeudi

    Heure Température Précipitation Vent Pression Humidité
    00:00 +10°C° 0 mm 3 m/s 759 mmHg 87%
    01:00 +10°C° 0 mm 3 m/s 759 mmHg 88%
    02:00 +10°C° 0 mm 3 m/s 759 mmHg 89%
    03:00 +9°C° 0 mm 2 m/s 759 mmHg 89%
    04:00 +10°C° 0 mm 2 m/s 759 mmHg 89%
    05:00 +10°C° 0 mm 2 m/s 759 mmHg 88%
    06:00 +10°C° 0 mm 2 m/s 759 mmHg 87%
    07:00 +13°C° 0 mm 2 m/s 759 mmHg 78%
    08:00 +15°C° 0 mm 1 m/s 759 mmHg 68%
    09:00 +18°C° 0 mm 1 m/s 760 mmHg 59%
    10:00 +19°C° 0 mm 2 m/s 759 mmHg 52%
    11:00 +20°C° 0 mm 2 m/s 759 mmHg 45%
    12:00 +23°C° 0 mm 2 m/s 758 mmHg 38%
    13:00 +23°C° 0 mm 2 m/s 757 mmHg 36%
    14:00 +23°C° 0 mm 2 m/s 756 mmHg 34%
    15:00 +24°C° 0 mm 2 m/s 756 mmHg 32%
    16:00 +21°C° 0 mm 2 m/s 756 mmHg 38%
    17:00 +19°C° 0 mm 2 m/s 756 mmHg 44%
    18:00 +17°C° 0 mm 2 m/s 756 mmHg 50%
    19:00 +16°C° 0 mm 2 m/s 756 mmHg 54%
    20:00 +15°C° 0 mm 2 m/s 756 mmHg 58%
    21:00 +14°C° 0 mm 3 m/s 756 mmHg 62%
    22:00 +14°C° 0 mm 3 m/s 755 mmHg 61%
    23:00 +14°C° 0 mm 4 m/s 755 mmHg 60%

    19 Octobre, Vendredi

    Heure Température Précipitation Vent Pression Humidité
    00:00 +15°C° 0 mm 4 m/s 754 mmHg 59%
    01:00 +15°C° 0 mm 5 m/s 753 mmHg 52%
    02:00 +16°C° 0 mm 6 m/s 752 mmHg 45%
    03:00 +17°C° 0 mm 7 m/s 751 mmHg 38%
    04:00 +18°C° 0 mm 7 m/s 750 mmHg 35%
    05:00 +20°C° 0 mm 7 m/s 750 mmHg 33%
    06:00 +20°C° 0 mm 7 m/s 750 mmHg 30%
    07:00 +21°C° 0.2 mm 8 m/s 750 mmHg 34%
    08:00 +21°C° 0.2 mm 8 m/s 750 mmHg 38%
    09:00 +22°C° 0.2 mm 9 m/s 750 mmHg 42%
    10:00 +23°C° 0 mm 10 m/s 750 mmHg 42%
    11:00 +26°C° 0 mm 11 m/s 750 mmHg 41%
    12:00 +27°C° 0 mm 12 m/s 750 mmHg 40%
    13:00 +24°C° 0 mm 11 m/s 751 mmHg 45%
    14:00 +22°C° 0 mm 10 m/s 752 mmHg 51%
    15:00 +19°C° 0 mm 9 m/s 752 mmHg 56%
    16:00 +18°C° 0 mm 9 m/s 753 mmHg 60%
    17:00 +16°C° 0 mm 8 m/s 755 mmHg 64%
    18:00 +14°C° 0 mm 7 m/s 756 mmHg 67%
    19:00 +14°C° 0 mm 7 m/s 757 mmHg 67%
    20:00 +13°C° 0 mm 6 m/s 758 mmHg 66%
    21:00 +11°C° 0 mm 6 m/s 759 mmHg 66%
    22:00 +11°C° 0 mm 6 m/s 759 mmHg 66%
    23:00 +10°C° 0 mm 5 m/s 759 mmHg 66%

    20 Octobre, Samedi

    Heure Température Précipitation Vent Pression Humidité
    00:00 +10°C° 0 mm 5 m/s 759 mmHg 67%
    01:00 +10°C° 0 mm 5 m/s 759 mmHg 68%
    02:00 +9°C° 0 mm 5 m/s 759 mmHg 70%
    03:00 +10°C° 0 mm 4 m/s 760 mmHg 71%
    04:00 +11°C° 0 mm 4 m/s 760 mmHg 71%
    05:00 +11°C° 0 mm 4 m/s 761 mmHg 71%
    06:00 +11°C° 0 mm 3 m/s 762 mmHg 70%
    07:00 +13°C° 0 mm 3 m/s 762 mmHg 63%
    08:00 +16°C° 0 mm 3 m/s 762 mmHg 56%
    09:00 +17°C° 0 mm 3 m/s 763 mmHg 50%
    10:00 +18°C° 0 mm 3 m/s 762 mmHg 47%
    11:00 +19°C° 0 mm 3 m/s 762 mmHg 43%
    12:00 +20°C° 0 mm 3 m/s 762 mmHg 40%
    13:00 +20°C° 0 mm 3 m/s 762 mmHg 40%
    14:00 +20°C° 0 mm 3 m/s 761 mmHg 39%
    15:00 +21°C° 0 mm 3 m/s 761 mmHg 38%
    16:00 +19°C° 0 mm 3 m/s 761 mmHg 45%
    17:00 +17°C° 0 mm 2 m/s 762 mmHg 52%
    18:00 +16°C° 0 mm 2 m/s 762 mmHg 59%
    19:00 +15°C° 0 mm 2 m/s 762 mmHg 63%
    20:00 +14°C° 0 mm 1 m/s 763 mmHg 67%
    21:00 +13°C° 0 mm 1 m/s 763 mmHg 71%
    22:00 +12°C° 0 mm 1 m/s 763 mmHg 72%
    23:00 +12°C° 0 mm 1 m/s 763 mmHg 72%
    Voir plus